Regional Weather Roundup
Issued by NWS

Home | Current Version | Previous Version | Graphics & Text | Print | Product List | Glossary On
Versions: 1 2 3 4 5 6 7 8 9 10 11 12 13 14 15 16 17 18 19 20 21 22 23 24 25 26 27
000
ASUS45 KSLC 171110
RWRUT

UTAH REGIONAL WEATHER ROUNDUP
NATIONAL WEATHER SERVICE SALT LAKE CITY UT
400 AM MST SUN DEC 17 2017

UTZ001>011-023>025-171200-

NORTHERN UTAH

CITY           SKY/WX    TMP DP  RH WIND       PRES   REMARKS
BRIGHAM CITY   CLEAR     25  20  82 SW6       30.16R WCI  18
HILL AFB       CLOUDY    27  24  88 SE5       30.13R WCI  21
LOGAN          PTCLDY    21  17  84 N3        30.16R
OGDEN          CLOUDY    28  23  81 CALM      30.13R
SALT LAKE CITY MOCLDY    31  26  82 NW5       30.15R WCI  26
TOOELE VALLEY  CLOUDY    30  28  93 W3        30.16R
WENDOVER       PTCLDY    26  17  68 S5        30.18R WCI  20
HEBER CITY     CLOUDY    28  21  74 N8        30.06R WCI  20
WEST JORDAN    CLOUDY    28  25  88 NW9       30.14R WCI  20

$$

UTZ011>015-024>027-171200-

CENTRAL/NORTHEAST UTAH

CITY           SKY/WX    TMP DP  RH WIND       PRES   REMARKS
PROVO AIRPORT  CLOUDY    30  25  81 NW12      30.14R WCI  20
MOAB/CANYONLAN PTCLDY    21  10  62 CALM      29.98R
DELTA          CLOUDY    27  25  93 NW3       30.13R
PRICE          MOCLDY    30  18  60 NW12      29.96R WCI  20
RICHFIELD      CLOUDY    28  27  93 N3        30.09R
ROOSEVELT      CLOUDY    21  12  68 W3        30.00R
VERNAL         CLEAR     20  12  71 NW6       29.98R WCI  12

$$

UTZ013>016-019>022-027-171200-

SOUTHERN UTAH

CITY           SKY/WX    TMP DP  RH WIND       PRES   REMARKS
BRYCE CANYON   CLOUDY    21  19  92 NW8       29.99S WCI  11
CEDAR CITY     CLOUDY    27  23  85 N13       30.04R WCI  16
MILFORD        CLOUDY    27  22  81 N10       30.11R WCI  17
ST GEORGE      MOSUNNY   42  22  44 S8        30.01R
HANKSVILLE     CLEAR     18   5  57 CALM      30.03R
KANAB          CLEAR     21   7  53 E8        30.02R WCI  12
BLANDING         N/A     23   3  42 N3        30.03R

$$

REGIONAL REPORTS     COLORADO/ARIZONA

CITY           SKY/WX    TMP DP  RH WIND       PRES   REMARKS
CRAIG, CO      CLOUDY    14  10  84 CALM      29.98R
GRAND JUNCTION CLOUDY    17   5  59 E6        29.98R WCI   9
RIFLE, CO      CLOUDY    15   6  67 CALM      29.99R
MONTROSE, CO   CLOUDY    16   6  65 SE6       30.00R WCI   7
CORTEZ, CO     CLOUDY    23   5  46 NE5       29.96R WCI  17
COLORADO CITY    N/A     19  10  68 SE3       30.00S
PAGE, AZ       PTCLDY    30  10  43 SW3       29.97R
GRAND CANYON   MOCLDY    16   0  49 CALM      29.96R
KINGMAN, AZ    PTCLDY    36  21  54 E10       29.92S WCI  28
FLAGSTAFF, AZ  MOCLDY    26   9  48 CALM      29.94S

$$

REGIONAL REPORTS    NEVADA/IDAHO/WYOMING

CITY           SKY/WX    TMP DP  RH WIND       PRES   REMARKS
LAS VEGAS, NV  MOCLDY    51  22  31 N17G30    29.97R
ELY, NY        MOCLDY    13   9  84 NW5       30.10R WCI   5
ELKO, NV       MOCLDY    14  10  84 CALM      30.18R
POCATELLO, ID  CLOUDY    27  23  85 SW17      30.18R WCI  14
BURLEY, ID       N/A     26  17  68 W10G30    30.19R WCI  16
EVANSTON, WY   CLOUDY    20  19  96 N6        30.03S WCI  12
ROCK SPRINGS,  LGT SNOW  22  19  89 SW14      29.98R FOG     WCI   9

$$




USA.gov is the U.S. government's official web portal to all federal, state and local government web resources and services.